Reading, PA

6:28 AM EST on December 16, 2019 (GMT -0500)
Reading Regional-Spaatz

Weather History for KRDG - August, 2019

Change the Weather History Date:

Tuesday, August 20, 2019

  Actual Average Record
Temperature  
Mean Temperature 82 °F 73 °F  
Max Temperature 93 °F 83 °F 96 °F (1937)
Min Temperature 70 °F 62 °F 48 °F (1911)
Degree Days  
Heating Degree Days 0 0  
Month to date heating degree days 0 0  
Since 1 June heating degree days 16 25  
Since 1 July heating degree days 0 1  
Cooling Degree Days 16 8  
Month to date cooling degree days 249 174  
Year to date cooling degree days 987 726  
Since 1 June cooling degree days 882 666  
Growing Degree Days 32 (Base 50)    
Moisture  
Dew Point 71 °F    
Average Humidity 75    
Maximum Humidity 100    
Minimum Humidity 49    
Precipitation  
Precipitation 0.00 in 0.13 in 1.79 in (1894)
Month to date precipitation 1.50 2.34  
Year to date precipitation 39.79 27.66  
Sea Level Pressure  
Sea Level Pressure 30.06 in    
Wind  
Wind Speed 2 mph ()    
Max Wind Speed 10 mph    
Max Gust Speed 12 mph    
Visibility 10.0 miles    
Events Thunderstorm    
T = Trace of Precipitation, MM = Missing Value Source: Averaged Metar Reports

Daily Weather History Graph

Daily Weather History Graph

Search for Another Location

Airport or City:

Astronomy

Aug. 20, 2019 Rise Set
Actual Time 6:19 AM EDT 7:54 PM EDT
Civil Twilight 5:50 AM EDT 8:23 PM EDT
Nautical Twilight 5:15 AM EDT 8:57 PM EDT
Astronomical Twilight 4:38 AM EDT 9:34 PM EDT
Moon 10:41 PM EDT (8/20) 10:55 AM EDT (8/20)
Length of Visible Light 14h 32m
Length of Day
13h 35m
Waning Gibbous, 78% of the Moon is Illuminated
Aug 20
Waning Gibbous
Aug 23
Last Quarter
Aug 30
New
Sep 5
First Quarter
Sep 14
Full

Hourly Weather History & Observations

Time (EDT) Temp. Heat Index Dew Point Humidity Pressure Visibility Wind Dir Wind Speed Gust Speed Precip Events Conditions
12:54 AM 72.0 °F - 71.1 °F 97% 30.04 in 10.0 mi Calm Calm - N/A   Clear
1:54 AM 72.0 °F - 72.0 °F 100% 30.04 in 10.0 mi Calm Calm - N/A   Clear
2:54 AM 71.1 °F - 71.1 °F 100% 30.04 in 10.0 mi Calm Calm - N/A   Clear
3:54 AM 71.1 °F - 71.1 °F 100% 30.05 in 10.0 mi Calm Calm - N/A   Clear
4:54 AM 71.1 °F - 71.1 °F 100% 30.06 in 10.0 mi Calm Calm - N/A   Partly Cloudy
5:54 AM 70.0 °F - 70.0 °F 100% 30.08 in 10.0 mi North 3.5 mph - N/A   Clear
6:54 AM 71.1 °F - 70.0 °F 96% 30.10 in 10.0 mi NNW 3.5 mph - N/A   Clear
7:54 AM 73.9 °F - 72.0 °F 93% 30.11 in 10.0 mi Calm Calm - N/A   Clear
8:54 AM 79.0 °F - 71.1 °F 77% 30.11 in 10.0 mi North 4.6 mph - N/A   Clear
9:54 AM 82.0 °F 85.9 °F 70.0 °F 67% 30.11 in 10.0 mi NE 3.5 mph - N/A   Clear
10:54 AM 84.9 °F 90.1 °F 71.1 °F 63% 30.12 in 10.0 mi Variable 3.5 mph - N/A   Clear
11:54 AM 87.1 °F 92.0 °F 70.0 °F 57% 30.11 in 10.0 mi Calm Calm - N/A   Clear
12:54 PM 88.0 °F 93.8 °F 71.1 °F 57% 30.09 in 10.0 mi NE 5.8 mph - N/A   Scattered Clouds
1:54 PM 90.0 °F 95.4 °F 70.0 °F 52% 30.09 in 10.0 mi Variable 3.5 mph - N/A   Mostly Cloudy
2:54 PM 89.1 °F 94.1 °F 70.0 °F 53% 30.06 in 10.0 mi Variable 5.8 mph - N/A   Mostly Cloudy
3:54 PM 91.0 °F 96.6 °F 70.0 °F 50% 30.04 in 10.0 mi SSW 5.8 mph - N/A   Clear
4:54 PM 91.0 °F 98.2 °F 72.0 °F 53% 30.04 in 10.0 mi South 5.8 mph - N/A   Scattered Clouds
5:54 PM 90.0 °F 95.4 °F 70.0 °F 52% 30.02 in 10.0 mi Calm Calm - N/A   Mostly Cloudy
6:54 PM 87.1 °F 92.8 °F 71.1 °F 59% 30.02 in 10.0 mi South 6.9 mph - N/A   Scattered Clouds
7:54 PM 84.9 °F 91.4 °F 73.0 °F 67% 30.01 in 10.0 mi SSE 3.5 mph - N/A   Partly Cloudy
8:54 PM 84.0 °F 90.2 °F 73.0 °F 69% 30.03 in 10.0 mi South 5.8 mph - N/A Thunderstorm Mostly Cloudy
9:04 PM 84.0 °F 89.6 °F 72.0 °F 67% 30.02 in 10.0 mi South 6.9 mph - N/A   Mostly Cloudy
9:54 PM 82.0 °F 87.4 °F 73.0 °F 74% 30.03 in 10.0 mi SSW 5.8 mph - N/A   Clear
10:54 PM 80.1 °F 84.2 °F 73.0 °F 79% 30.01 in 10.0 mi SE 3.5 mph - N/A   Clear
11:54 PM 78.1 °F - 73.0 °F 84% 30.01 in 10.0 mi South 4.6 mph - N/A   Clear